Вернуться в каталог

COSMOS 2251 DEB

АктивенLEO
NORAD 35015·DEBRIS·🇷🇺 Russia

Запущен Jun 16, 1993 с Plesetsk Cosmodrome

Loading…

Ближайшие Пролёты (ближайшие 24 часа)

TLE

СвежийSource: Space-Track

Эпоха: Sep 13, 2026, 06:47 UTC

1 35015U 93036AGC 26256.28312148  .00001612  00000-0  42452-3 0  9995
2 35015  73.9450  78.2634 0073555 244.2707 291.0182 14.48310307694132

Отслеживайте COSMOS 2251 DEB в реальном времени с AllMySat

Download on the App Store